FW7166 Weather Reports


time (UTC)temp
C
wind
direction
speed
KPH
gust
KPH
rain 1hr
cm
rain 24hr
cm
rain mn
cm
humidity
%
barometer
mb
20260502181040 19 205 0.0 22.5 0.00 0.00 0.00 38 1014.2
20260502170520 21 197 4.8 17.7 0.00 0.00 0.00 32 1014.5
20260502163946 21 169 3.2 17.7 0.00 0.00 0.00 29 1014.1
20260502163445 21 197 4.8 17.7 0.00 0.00 0.00 29 1014.5
20260502162945 21 184 4.8 17.7 0.00 0.00 0.00 29 1014.2
20260502162444 21 191 3.2 17.7 0.00 0.00 0.00 29 1014.4
20260502160912 21 224 4.8 20.9 0.00 0.00 0.00 28 1014.1
20260502160411 21 218 6.4 20.9 0.00 0.00 0.00 28 1014.8
20260502151851 22 177 4.8 17.7 0.00 0.00 0.00 27 1015.2
20260502151351 22 183 6.4 17.7 0.00 0.00 0.00 28 1014.9
20260502150851 22 195 4.8 19.3 0.00 0.00 0.00 28 1015.1
20260502150350 22 180 6.4 20.9 0.00 0.00 0.00 27 1015.7
20260502130213 22 212 8.0 20.9 0.00 0.00 0.00 31 1016.1
20260502123712 22 213 9.7 24.1 0.00 0.00 0.00 30 1016.7
20260502123212 22 203 8.0 24.1 0.00 0.00 0.00 30 1016.6
20260502122712 22 229 9.7 24.1 0.00 0.00 0.00 31 1017.0
20260502122211 22 243 6.4 25.7 0.00 0.00 0.00 31 1016.5
20260502121710 22 220 6.4 25.7 0.00 0.00 0.00 32 1016.5
20260502121210 22 209 9.7 27.4 0.00 0.00 0.00 32 1016.8
20260502120710 22 223 11.3 27.4 0.00 0.00 0.00 32 1017.0
20260502120209 22 189 6.4 20.9 0.00 0.00 0.00 33 1017.4
20260502115708 22 204 6.4 22.5 0.00 0.00 0.00 34 1017.3
20260502115208 22 158 6.4 22.5 0.00 0.00 0.00 35 1017.3
20260502114708 22 168 8.0 19.3 0.00 0.00 0.00 34 1017.3
20260502114208 22 205 4.8 19.3 0.00 0.00 0.00 33 1017.1
20260502113152 22 149 6.4 19.3 0.00 0.00 0.00 33 1017.4
20260502112135 22 172 8.0 20.9 0.00 0.00 0.00 33 1017.6
20260502111635 22 183 8.0 20.9 0.00 0.00 0.00 34 1017.4
20260502111134 22 191 6.4 20.9 0.00 0.00 0.00 35 1017.7
20260502110634 22 167 9.7 20.9 0.00 0.00 0.00 34 1017.5
20260502105104 22 212 8.0 22.5 0.00 0.00 0.00 34 1018.0
20260502104603 22 199 8.0 24.1 0.00 0.00 0.00 34 1017.5
20260502104103 22 190 8.0 24.1 0.00 0.00 0.00 34 1018.1
20260502103047 22 172 3.2 32.2 0.00 0.00 0.00 36 1017.8
20260502102547 22 206 3.2 32.2 0.00 0.00 0.00 36 1018.0
20260502101532 22 178 4.8 17.7 0.00 0.00 0.00 37 1017.9
20260502101031 22 159 8.0 17.7 0.00 0.00 0.00 38 1018.2
20260502100530 22 167 4.8 17.7 0.00 0.00 0.00 38 1018.4
20260502091513 21 139 4.8 17.7 0.00 0.00 0.00 40 1019.0
20260502091013 20 211 4.8 17.7 0.00 0.00 0.00 41 1018.6
20260502071434 17 162 3.2 17.7 0.00 0.00 0.00 48 1019.6
20260502070933 17 145 3.2 17.7 0.00 0.00 0.00 50 1019.7
20260502070433 16 157 3.2 17.7 0.00 0.00 0.00 51 1019.7
20260502065933 16 178 1.6 17.7 0.00 0.00 0.00 51 1019.9
20260502064918 15 195 0.0 17.7 0.00 0.00 0.00 52 1020.2
20260502064417 15 166 1.6 17.7 0.00 0.00 0.00 53 1020.0
20260502063917 15 159 1.6 17.7 0.00 0.00 0.00 54 1020.3
20260502062900 14 187 1.6 17.7 0.00 0.00 0.00 56 1020.5
20260502062359 13 143 1.6 17.7 0.00 0.00 0.00 57 1020.2
20260502060842 12 97 1.6 17.7 0.00 0.00 0.00 60 1020.7
20260502060343 12 163 1.6 17.7 0.00 0.00 0.00 60 1020.7
20260502055841 12 108 1.6 17.7 0.00 0.00 0.00 61 1020.4
20260502055340 11 92 0.0 17.7 0.00 0.00 0.00 62 1020.6
20260502054840 11 92 0.0 17.7 0.00 0.00 0.00 63 1020.6
20260502054340 11 137 1.6 17.7 0.00 0.00 0.00 64 1020.7
20260502053323 10 146 0.0 17.7 0.00 0.00 0.00 69 1020.6
20260502052823 9 146 0.0 17.7 0.00 0.00 0.00 71 1020.8
20260502052323 8 146 0.0 17.7 0.00 0.00 0.00 72 1020.9
20260502051308 8 147 0.0 17.7 0.00 0.00 0.00 75 1021.1
20260502050808 7 147 1.6 17.7 0.00 0.00 0.00 77 1020.9
20260502050308 7 136 1.6 17.7 0.00 0.00 0.00 79 1021.2
20260502045808 6 146 1.6 17.7 0.00 0.00 0.00 81 1021.1
20260502045308 5 191 0.0 17.7 0.00 0.00 0.00 81 1021.4
20260502044808 5 191 0.0 17.7 0.00 0.00 0.00 80 1021.5
20260502044307 5 191 0.0 17.7 0.00 0.00 0.00 80 1021.5
20260502043807 4 191 0.0 17.7 0.00 0.00 0.00 81 1021.4
20260502043306 3 191 0.0 17.7 0.00 0.00 0.00 81 1021.7
20260502042250 3 191 0.0 17.7 0.00 0.00 0.00 82 1021.7
20260502041749 3 191 0.0 17.7 0.00 0.00 0.00 82 1021.8
20260502041249 3 191 0.0 17.7 0.00 0.00 0.00 81 1021.8
20260502040749 3 191 0.0 17.7 0.00 0.00 0.00 81 1022.0
20260502040248 3 191 0.0 17.7 0.00 0.00 0.00 81 1022.1
20260502035747 3 191 0.0 17.7 0.00 0.00 0.00 81 1022.1
20260502035246 3 191 0.0 17.7 0.00 0.00 0.00 81 1022.1
20260502034746 3 191 0.0 17.7 0.00 0.00 0.00 81 1022.1
20260502033730 3 191 0.0 17.7 0.00 0.00 0.00 80 1022.5
20260502031644 3 191 0.0 17.7 0.00 0.00 0.00 80 1022.4
20260502031144 3 191 0.0 17.7 0.00 0.00 0.00 80 1022.5
20260502030644 3 191 0.0 17.7 0.00 0.00 0.00 80 1022.6
20260502030144 3 191 0.0 17.7 0.00 0.00 0.00 79 1022.6
20260502025129 3 191 0.0 17.7 0.00 0.00 0.00 79 1022.4
20260502024628 3 191 0.0 17.7 0.00 0.00 0.00 79 1022.5
20260502024128 4 191 0.0 17.7 0.00 0.00 0.00 80 1022.7
20260502023627 4 191 0.0 17.7 0.00 0.00 0.00 80 1022.6
20260502023126 4 191 0.0 17.7 0.00 0.00 0.00 79 1022.6
20260502022626 4 191 0.0 17.7 0.00 0.00 0.00 79 1022.8
20260502022126 4 191 0.0 17.7 0.00 0.00 0.00 78 1022.9
20260502021110 4 191 0.0 17.7 0.00 0.00 0.00 77 1022.8
20260502020610 5 191 0.0 17.7 0.00 0.00 0.00 77 1022.8
20260502020110 5 191 0.0 17.7 0.00 0.00 0.00 76 1022.9
20260502015610 5 191 0.0 17.7 0.00 0.00 0.00 77 1022.9
20260502015110 5 191 0.0 17.7 0.00 0.00 0.00 77 1023.3
20260502014610 5 191 0.0 17.7 0.00 0.00 0.00 77 1023.1
20260502014109 5 191 0.0 17.7 0.00 0.00 0.00 78 1023.2
20260502013608 5 191 0.0 17.7 0.00 0.00 0.00 78 1023.3
20260502013107 5 191 0.0 17.7 0.00 0.00 0.00 77 1023.4
20260502012607 5 191 0.0 17.7 0.00 0.00 0.00 77 1023.5
20260502011551 5 191 0.0 17.7 0.00 0.00 0.00 76 1023.4
20260502011051 5 191 0.0 17.7 0.00 0.00 0.00 76 1023.5
20260502010551 5 191 0.0 17.7 0.00 0.00 0.00 76 1023.7
20260502010050 5 191 0.0 17.7 0.00 0.00 0.00 76 1023.6
20260502005550 5 191 0.0 17.7 0.00 0.00 0.00 76 1023.6
20260502005050 5 191 0.0 17.7 0.00 0.00 0.00 76 1023.9
20260502004549 5 191 0.0 17.7 0.00 0.00 0.00 77 1023.6
20260502003533 5 191 0.0 17.7 0.00 0.00 0.00 76 1023.9
20260502003033 5 191 0.0 17.7 0.00 0.00 0.00 76 1023.9
20260502002532 5 191 0.0 17.7 0.00 0.00 0.00 75 1023.8
20260502002032 5 191 0.0 17.7 0.00 0.00 0.00 75 1024.1
20260502001532 5 191 0.0 17.7 0.00 0.00 0.00 74 1024.0
20260502001031 6 191 0.0 17.7 0.00 0.00 0.00 74 1024.1
20260502000531 6 191 0.0 17.7 0.00 0.00 0.00 74 1024.1
20260502000031 6 191 0.0 17.7 0.00 0.00 0.00 73 1024.3
20260501235531 6 191 0.0 17.7 0.00 0.00 0.00 72 1023.9
20260501234516 6 191 0.0 17.7 0.00 0.00 0.00 73 1024.2
20260501234016 7 191 0.0 17.7 0.00 0.00 0.00 73 1024.4
20260501233516 7 191 0.0 17.7 0.00 0.00 0.00 73 1024.2
20260501233016 7 191 0.0 17.7 0.00 0.00 0.00 72 1024.1
20260501232515 7 191 0.0 17.7 0.00 0.00 0.00 71 1024.0
20260501232014 7 191 0.0 17.7 0.00 0.00 0.00 71 1024.2
20260501231515 7 191 0.0 17.7 0.00 0.00 0.00 71 1024.3
20260501231013 7 191 0.0 17.7 0.00 0.00 0.00 70 1024.8
20260501230513 7 191 0.0 17.7 0.00 0.00 0.00 70 1024.3
20260501230012 7 191 0.0 17.7 0.00 0.00 0.00 70 1024.5
20260501225513 8 191 0.0 17.7 0.00 0.00 0.00 71 1024.4
20260501225011 8 191 0.0 17.7 0.00 0.00 0.00 70 1024.4
20260501224511 8 191 0.0 17.7 0.00 0.00 0.00 69 1024.5
20260501223455 8 191 0.0 17.7 0.00 0.00 0.00 67 1024.8
20260501222955 8 191 0.0 17.7 0.00 0.00 0.00 67 1024.9
20260501222454 8 191 0.0 17.7 0.00 0.00 0.00 68 1024.7
20260501221954 8 191 0.0 17.7 0.00 0.00 0.00 68 1024.6
20260501221454 8 191 0.0 17.7 0.00 0.00 0.00 68 1024.9
20260501220953 9 191 0.0 17.7 0.00 0.00 0.00 67 1024.7
20260501220453 9 191 0.0 17.7 0.00 0.00 0.00 66 1025.1
20260501215953 9 191 0.0 17.7 0.00 0.00 0.00 66 1024.9
20260501215453 9 191 0.0 17.7 0.00 0.00 0.00 66 1024.8
20260501214952 9 191 0.0 17.7 0.00 0.00 0.00 66 1025.1
20260501213420 10 191 0.0 17.7 0.00 0.00 0.00 64 1024.9
20260501212919 10 191 0.0 17.7 0.00 0.00 0.00 63 1025.0
20260501212420 10 191 0.0 17.7 0.00 0.00 0.00 63 1025.3
20260501211920 10 191 0.0 17.7 0.00 0.00 0.00 63 1025.1
20260501211418 10 191 0.0 17.7 0.00 0.00 0.00 62 1025.2
20260501210918 10 191 0.0 17.7 0.00 0.00 0.00 61 1025.0
20260501210418 11 191 0.0 17.7 0.00 0.00 0.00 59 1025.1
20260501205400 11 191 0.0 17.7 0.00 0.00 0.00 58 1025.2
20260501204901 12 191 0.0 17.7 0.00 0.00 0.00 57 1025.0
20260501204359 12 191 0.0 17.7 0.00 0.00 0.00 57 1025.2
20260501203859 12 191 0.0 17.7 0.00 0.00 0.00 56 1025.1
20260501202328 12 191 0.0 17.7 0.00 0.00 0.00 53 1025.3
20260501201828 13 191 0.0 17.7 0.00 0.00 0.00 53 1025.1
20260501200257 13 191 0.0 17.7 0.00 0.00 0.00 50 1025.4
20260501194725 13 191 0.0 17.7 0.00 0.00 0.00 48 1025.3
20260501194224 14 191 1.6 17.7 0.00 0.00 0.00 48 1025.1
20260501193724 14 191 0.0 17.7 0.00 0.00 0.00 47 1025.6
20260501192708 15 181 1.6 17.7 0.00 0.00 0.00 46 1025.4
20260501192208 15 171 1.6 17.7 0.00 0.00 0.00 45 1025.4
20260501190121 16 188 1.6 17.7 0.00 0.00 0.00 42 1025.3
20260501185104 16 185 1.6 17.7 0.00 0.00 0.00 40 1025.3
20260501184604 16 217 1.6 17.7 0.00 0.00 0.00 39 1025.4
20260501184104 17 231 0.0 17.7 0.00 0.00 0.00 38 1025.1
20260501183604 17 231 0.0 17.7 0.00 0.00 0.00 38 1024.9
20260501182547 17 220 1.6 17.7 0.00 0.00 0.00 36 1025.1
20260501182047 17 205 1.6 17.7 0.00 0.00 0.00 36 1025.1